Voltar ao catálogo

CS2

AtivoComunicaçõesSSO
NORAD 49262·PAYLOAD·🇺🇸 United States

Lançado Sep 27, 2021 de Vandenberg Space Force Base

Loading…

Próximas Passagens (próximas 24 horas)

TLE

AtualizadoSource: Space-Track

Época: Sep 14, 2026, 10:40 UTC

1 49262U 21088C   26257.44461934  .00012451  00000-0  32604-3 0  9990
2 49262  97.3723 323.5708 0010393 119.1620 241.0667 15.38795422274230

Acompanhe CS2 em tempo real com AllMySat

Download on the App Store